Wind_Speed
31 31 32 32 32 32 32 32 32 32 32 32 32 31 31 31 30 30 28 27 26 26 25 24 23 23 22 21 20 19 18 18 18 19 20 21 22 23 25 26 28 28 29 29 30 31 32 33 35 36 36 35 32 30 30 30 30 31 31 30 29 29 28 28 28 28 27 27 27 26 25 27 28 30 31 32 33 33 34 35 35 35 36 36 36 36 36 35
32 32 33 33 33 34 34 34 34 34 34 34 33 33 33 33 33 32 31 29 29 28 27 26 25 24 23 23 22 20 19 18 18 19 20 21 22 24 26 27 29 30 30 31 32 33 33 34 35 36 36 36 34 31 31 31 31 32 32 31 30 30 30 29 29 28 28 28 27 26 26 27 29 30 31 31 32 33 33 34 35 35 35 35 35 35 35 35
33 33 34 34 34 35 36 36 36 36 36 35 35 35 34 35 34 34 33 32 31 30 29 28 27 26 25 24 23 22 21 20 19 20 20 21 22 24 26 28 29 30 32 32 33 34 35 35 35 36 37 37 36 33 32 32 32 33 33 32 32 32 31 31 30 30 29 29 29 28 27 27 29 30 31 32 33 33 33 33 34 34 34 34 35 35 35 36
34 34 35 35 36 36 37 37 38 38 38 37 37 36 36 36 36 36 35 34 33 32 31 30 29 28 27 26 25 23 22 21 21 21 21 22 23 24 26 28 29 31 32 33 34 35 36 36 36 37 37 38 38 35 33 33 34 34 34 33 33 33 33 32 32 32 32 31 31 30 29 29 29 30 31 32 33 33 34 34 34 34 34 35 35 36 36 37
35 35 36 36 37 37 38 39 39 39 40 39 39 38 38 38 38 38 37 36 35 34 33 32 31 30 28 27 26 25 23 23 23 22 22 23 23 25 26 28 30 31 32 33 34 35 36 36 37 37 38 38 38 36 34 33 34 34 34 33 33 33 33 33 33 33 33 33 33 33 31 30 30 30 31 32 33 34 34 35 36 36 36 36 36 36 36 36
37 37 37 37 37 37 38 39 40 40 41 41 41 40 40 39 40 39 39 38 37 36 35 34 32 31 30 29 27 26 25 24 24 24 24 24 25 25 27 29 31 32 33 33 33 34 35 36 36 37 38 38 38 37 35 34 34 34 33 33 32 33 33 33 33 33 33 33 34 33 32 31 30 31 32 32 32 34 35 35 36 36 36 36 36 36 36 37
38 38 38 38 38 38 38 39 41 42 42 43 43 42 42 41 41 41 40 39 38 37 36 35 34 33 32 30 29 28 26 26 25 25 25 25 26 26 27 29 32 33 34 33 34 34 35 35 36 36 37 38 39 38 37 35 34 34 33 33 32 32 32 32 32 32 33 33 33 32 32 31 31 31 32 32 32 33 34 35 35 35 35 35 36 36 37 38
39 39 39 39 39 39 39 40 41 42 43 44 44 44 43 43 43 43 42 41 40 39 38 37 35 34 33 32 31 29 28 27 27 26 26 27 27 28 28 30 32 34 34 34 34 34 34 35 36 36 37 39 39 39 38 37 35 34 34 33 32 31 32 32 32 32 32 32 32 32 32 31 30 31 32 33 33 33 33 34 34 34 35 35 36 37 38 39
40 40 40 40 40 40 40 40 41 43 44 44 45 45 45 45 45 44 44 42 42 41 40 38 37 36 34 33 32 31 30 29 28 28 28 28 29 29 30 31 32 34 35 35 36 36 35 36 36 36 37 38 40 40 39 38 36 35 34 33 31 31 31 31 32 32 32 32 32 32 32 31 30 31 32 33 33 34 34 34 35 36 36 37 37 38 39 40
41 41 41 41 41 41 41 41 42 43 44 45 46 47 46 46 46 46 45 44 43 42 41 40 39 37 36 35 34 32 32 30 30 30 30 30 30 30 31 32 32 34 35 36 37 38 37 37 37 37 36 38 40 41 40 38 37 36 35 33 32 31 31 31 31 32 32 32 33 32 33 32 31 32 34 35 35 36 37 37 38 38 38 39 39 40 40 40
42 42 41 41 41 41 41 42 42 43 44 45 46 47 48 48 47 47 47 46 45 44 43 42 41 39 38 36 35 34 33 32 31 31 31 31 32 32 32 33 33 34 36 37 39 40 40 40 39 38 36 37 40 41 41 39 37 36 35 34 33 32 32 32 31 32 32 32 33 33 34 33 31 33 35 36 37 37 39 40 41 41 41 41 41 41 41 42
42 42 42 42 42 42 42 42 43 43 44 45 46 47 48 49 48 49 48 47 47 46 45 44 43 41 40 38 37 36 35 34 33 33 33 33 33 34 34 34 34 35 36 37 39 41 43 43 41 39 36 37 40 41 41 40 38 36 35 35 34 34 34 33 32 32 33 32 32 32 34 34 31 32 35 36 38 38 40 42 42 43 43 43 43 43 44 44
41 42 43 43 43 43 42 42 43 43 44 45 46 47 48 49 49 49 49 49 48 47 46 45 44 43 42 40 39 38 37 36 35 34 34 34 34 35 36 36 36 36 37 38 40 42 44 44 42 39 37 37 39 40 40 40 38 36 35 35 35 35 35 35 34 34 34 33 32 31 34 36 32 33 37 38 39 40 42 43 43 44 44 44 45 45 45 45
40 41 42 43 43 43 43 43 43 44 44 45 46 46 48 49 49 50 50 49 49 48 47 47 46 44 44 43 41 39 39 38 37 36 35 35 36 37 37 38 38 37 38 39 41 43 44 44 43 40 37 37 39 40 40 39 38 36 35 34 35 36 35 35 35 35 35 35 34 32 34 39 36 36 39 41 42 43 44 45 44 44 44 45 45 45 45 45
38 39 41 42 42 43 44 44 44 44 44 45 45 46 47 48 49 49 50 50 49 49 48 48 47 46 46 45 43 41 41 40 39 38 37 37 37 38 39 39 39 39 40 41 42 44 44 44 43 41 38 38 38 39 39 38 38 36 35 35 35 36 36 36 36 36 36 36 36 34 35 39 39 39 41 42 44 45 46 46 46 45 45 46 45 45 45 46
35 37 38 40 41 42 43 44 44 45 44 45 45 45 46 48 48 49 49 50 49 49 48 48 48 47 47 47 45 43 42 42 41 39 38 38 38 39 40 41 41 41 41 42 43 44 44 43 43 42 40 39 39 38 38 37 37 36 35 35 35 36 37 37 36 36 37 37 38 37 37 39 40 40 42 44 45 46 47 47 47 47 47 46 45 45 46 47
33 34 35 37 39 41 42 43 44 44 44 44 45 45 45 47 47 48 49 49 49 49 49 49 48 47 48 48 47 45 44 44 43 41 40 39 40 41 42 42 42 43 43 44 44 45 45 44 43 42 41 41 39 38 37 37 36 35 35 36 36 36 36 37 37 37 37 38 39 38 38 40 40 40 43 44 45 47 48 48 48 48 47 47 47 47 47 47
32 33 33 35 37 39 40 42 42 43 44 44 45 45 44 45 47 47 48 48 49 49 49 49 49 48 49 48 48 47 46 45 44 43 41 40 41 42 43 44 44 44 44 45 45 46 46 44 43 42 42 42 41 39 37 37 37 36 36 37 37 38 38 38 37 37 37 38 40 39 38 42 43 42 43 44 45 47 48 48 48 48 48 49 49 50 49 49
33 33 33 33 35 36 38 39 41 42 43 43 44 45 44 44 45 46 47 47 48 49 49 49 49 49 49 49 49 49 48 47 46 44 43 42 43 43 44 45 45 45 45 45 46 46 46 45 43 42 43 44 44 41 38 37 37 37 37 37 38 39 40 40 39 39 38 38 42 41 40 43 46 46 45 45 46 47 48 49 49 49 50 51 52 52 52 52
35 34 33 33 34 34 35 37 38 40 42 43 43 44 44 44 44 45 46 47 47 48 49 49 49 49 49 50 50 50 50 49 48 46 45 44 45 45 45 46 46 47 46 46 47 47 47 45 43 43 43 45 46 44 41 38 38 38 38 39 39 39 41 42 42 41 40 39 42 43 41 44 48 49 49 47 48 49 50 50 51 51 52 53 53 53 53 53
39 37 36 35 34 34 35 36 36 37 39 42 42 43 43 43 43 43 44 46 47 48 49 49 49 49 49 50 51 51 51 51 50 49 48 46 46 46 47 47 48 48 48 47 47 48 48 46 44 44 44 45 46 46 44 41 40 40 40 41 42 41 41 43 43 43 42 41 43 45 43 45 50 53 53 52 51 53 53 52 53 54 54 54 54 54 54 55
42 41 39 38 37 36 35 35 36 36 37 39 40 41 42 42 43 43 43 45 46 47 49 49 49 49 50 51 53 53 53 53 52 51 51 49 49 48 48 49 49 49 49 48 48 48 48 47 46 46 46 46 46 47 46 44 43 43 42 42 43 44 43 44 46 45 45 44 45 46 44 45 50 55 56 55 55 56 55 55 56 56 56 56 56 56 56 57
45 43 43 42 41 39 38 37 36 36 36 38 39 39 40 41 42 43 43 43 45 47 48 49 49 49 50 52 54 54 54 55 54 54 53 52 52 51 50 50 50 50 49 48 48 48 49 48 47 47 48 47 47 47 47 45 46 47 45 43 43 45 43 44 45 46 47 47 47 47 44 44 49 56 59 58 58 59 57 57 58 59 58 58 57 58 58 59
48 47 46 45 44 43 41 41 39 38 38 38 38 38 38 40 41 42 43 42 43 47 49 49 49 49 51 53 55 55 56 56 55 56 55 54 54 53 53 52 51 51 50 49 49 49 50 50 48 49 50 50 49 49 47 46 48 50 49 45 43 45 44 43 44 44 46 47 50 49 44 41 45 54 60 61 62 62 59 59 61 61 60 59 58 58 59 60
50 50 49 49 47 45 44 43 43 42 41 40 39 38 38 39 40 41 42 41 41 45 49 49 48 50 52 55 56 56 56 56 56 56 56 56 56 55 55 54 53 53 51 50 49 49 51 51 50 50 51 52 52 50 48 47 48 51 52 48 46 46 46 46 45 43 44 45 50 53 47 40 43 51 58 61 64 64 62 62 63 62 62 60 59 59 59 61
53 52 52 51 50 49 47 46 46 45 44 43 42 40 40 39 40 40 42 41 38 42 48 48 48 52 54 57 58 57 57 57 57 57 57 57 57 56 55 54 54 54 52 51 49 50 52 52 52 52 53 54 54 52 50 49 49 52 54 52 51 51 49 50 49 47 45 44 49 57 53 43 43 50 57 62 65 65 64 65 65 64 63 60 60 60 61 62
56 55 55 53 53 53 50 49 49 48 47 47 45 44 43 42 41 41 42 40 35 39 46 48 50 53 55 58 59 58 58 58 58 58 58 58 57 56 55 55 56 54 53 51 49 51 53 52 54 55 55 56 56 55 52 52 52 52 55 55 55 55 54 54 53 51 50 46 48 59 59 50 45 49 58 64 66 66 67 68 67 65 63 61 61 61 63 65
59 59 59 57 56 56 54 52 52 51 51 49 48 48 46 45 44 43 43 40 34 35 42 48 52 54 55 58 58 58 58 58 59 58 57 57 56 56 56 57 57 55 54 53 51 53 54 54 56 57 57 58 58 57 55 55 55 55 56 58 58 59 58 57 55 54 53 48 49 58 61 56 49 49 59 67 66 66 69 71 69 66 64 62 62 64 66 68
61 61 61 60 60 59 58 57 56 56 54 53 52 51 49 48 47 46 45 41 35 35 40 46 49 52 54 56 56 57 57 57 57 57 57 57 57 58 58 58 58 56 55 54 53 55 56 56 57 58 59 59 59 58 58 59 59 58 59 60 61 61 60 60 58 57 56 51 52 58 60 59 53 49 60 67 65 66 69 71 69 66 65 64 65 67 69 71
63 63 63 63 62 62 61 60 60 59 58 57 56 54 53 51 49 48 46 42 39 41 44 46 48 50 53 54 55 56 56 56 56 57 57 58 59 59 59 59 59 58 57 56 56 56 57 57 58 59 60 60 60 60 61 61 61 62 63 63 64 63 63 62 60 60 58 54 56 59 58 59 55 51 59 65 65 67 70 70 69 68 67 67 69 70 72 73
65 65 65 64 63 64 64 63 62 62 62 60 60 58 57 54 52 50 45 43 45 47 47 49 50 52 53 54 55 55 56 56 57 58 59 59 59 59 59 60 61 60 59 58 59 58 58 59 60 62 62 63 62 62 63 64 64 65 65 66 66 66 65 62 60 61 60 57 59 59 57 58 55 53 59 63 65 69 71 70 71 69 70 71 71 72 74 74
65 66 66 66 65 66 66 65 65 64 63 63 63 61 60 58 54 49 46 48 51 49 49 53 53 53 54 54 54 55 56 57 57 58 59 59 59 59 60 61 64 64 61 61 62 61 59 60 62 64 64 65 64 64 65 66 67 68 68 69 68 67 66 62 61 63 62 60 61 59 57 56 54 54 58 61 65 70 71 71 71 71 72 72 72 74 74 74
65 66 67 67 66 67 67 67 67 66 66 66 65 63 62 58 51 49 51 54 55 53 54 56 55 55 56 55 55 57 57 58 59 60 61 60 60 60 62 64 67 68 66 64 64 63 60 59 62 66 66 65 66 68 68 69 70 70 69 70 68 68 68 65 64 65 63 61 60 60 58 55 52 53 56 60 66 71 71 71 72 72 72 72 73 74 74 76
66 66 67 67 67 68 68 68 67 67 68 68 67 66 62 55 50 52 56 58 60 60 60 60 60 60 59 59 59 60 61 61 61 62 62 61 61 62 63 65 68 71 71 69 67 65 63 59 62 67 67 67 69 70 71 72 72 71 70 69 67 68 71 70 68 68 66 61 58 59 59 55 53 53 55 60 68 73 72 72 73 73 73 73 74 74 75 78
69 68 68 68 68 69 69 68 66 67 67 67 67 64 55 50 53 58 59 60 63 64 63 65 64 63 62 61 61 62 64 64 63 63 63 62 62 62 63 66 70 72 74 74 73 71 67 63 64 68 68 70 71 72 74 74 73 72 70 67 66 68 72 74 72 70 70 65 57 57 60 56 53 53 56 62 70 74 74 73 75 75 74 75 74 75 78 81
72 71 70 70 71 72 71 69 68 68 68 67 65 55 46 48 55 59 60 64 66 67 67 68 66 66 65 64 64 65 67 67 66 66 65 65 64 63 65 68 71 74 76 79 79 76 73 68 68 70 71 72 73 74 73 73 73 72 68 65 66 69 73 77 77 73 74 71 62 59 60 56 53 54 57 64 71 74 74 75 75 75 75 76 75 77 82 84
74 73 72 73 76 77 74 72 72 72 71 69 61 48 44 49 54 57 62 65 68 70 70 69 68 68 68 67 67 69 71 71 69 69 69 69 67 65 67 71 73 76 80 83 83 81 80 75 72 72 73 72 73 72 70 70 72 71 67 66 69 72 75 79 80 76 77 77 69 63 63 58 55 55 57 66 73 74 74 75 74 75 77 77 78 80 84 85
77 75 72 74 79 81 78 77 77 76 76 71 58 48 47 49 51 57 62 65 67 69 69 68 68 69 69 68 69 71 74 74 72 73 73 73 71 68 70 74 77 79 82 86 86 84 85 82 75 72 72 71 70 68 68 69 71 70 68 70 72 75 78 80 81 79 80 82 76 69 66 59 57 60 63 70 75 73 74 75 74 76 79 79 80 83 86 88
79 77 74 75 82 84 81 81 81 81 80 71 60 54 52 50 52 57 62 65 67 67 66 66 67 67 65 66 68 71 73 74 74 76 75 74 72 70 73 77 79 82 84 87 87 86 87 86 77 70 69 68 67 67 69 70 71 71 71 73 75 78 81 81 82 82 84 87 83 78 73 61 59 66 69 72 74 72 74 76 75 78 80 80 83 86 88 90
82 80 77 78 84 86 85 86 85 83 80 72 65 62 58 56 57 60 64 68 69 69 68 66 67 68 65 66 69 70 72 72 72 73 72 70 69 69 72 77 80 83 85 87 87 87 88 86 78 71 68 67 66 68 70 71 73 74 74 76 77 80 83 83 83 83 85 89 88 88 82 65 60 67 70 72 74 74 76 78 78 82 83 84 87 89 91 92
85 83 79 82 88 89 89 89 86 83 80 74 69 67 64 64 64 64 66 70 71 71 71 69 69 68 68 69 71 72 74 73 71 71 70 68 68 69 71 76 80 83 84 86 86 86 87 86 79 72 69 68 68 69 71 72 74 77 78 79 80 82 84 86 87 84 85 89 89 93 91 71 62 70 75 75 77 78 81 83 83 86 86 88 91 92 93 93
86 83 81 85 91 91 93 92 87 84 80 74 73 74 73 72 69 68 68 70 72 72 73 73 71 71 71 72 73 75 76 74 72 72 71 69 69 71 74 77 79 81 83 84 84 85 88 87 81 75 72 71 69 69 71 73 76 79 79 79 80 82 84 87 89 86 86 86 86 94 95 75 67 76 79 77 80 83 87 87 87 89 90 92 94 94 94 95
88 86 85 88 90 92 94 91 87 85 82 78 79 80 79 76 73 72 71 73 74 74 75 75 73 73 73 72 74 76 77 77 75 73 73 73 72 74 78 80 81 83 84 85 86 88 90 87 83 78 75 72 71 70 71 75 79 81 79 79 80 81 83 86 87 88 87 82 84 96 95 78 74 80 79 79 83 87 89 89 89 92 94 95 96 96 95 96
93 91 90 90 91 93 93 89 87 87 86 84 84 83 82 80 76 74 75 77 79 79 78 75 73 75 76 76 77 78 78 78 77 76 78 78 76 77 81 84 86 87 88 89 91 92 92 88 85 81 78 75 73 73 75 79 83 83 79 80 82 82 83 84 85 88 85 79 87 99 95 83 81 81 80 83 88 90 90 92 94 95 96 97 97 97 97 99
99 98 95 94 94 94 91 87 88 90 88 87 87 85 85 83 78 77 78 79 80 80 78 74 75 77 79 79 80 79 79 80 80 80 80 78 78 78 82 86 89 90 91 91 93 94 93 90 87 85 82 78 75 75 79 82 84 83 80 81 82 82 82 83 85 88 84 84 94 99 94 89 84 81 84 89 92 94 95 96 97 97 97 98 98 99 100 104
103 102 99 97 98 97 93 90 92 92 90 90 90 89 89 87 84 82 82 79 76 77 78 78 79 79 78 77 78 80 80 81 83 82 78 76 78 79 83 87 89 90 91 91 93 94 94 92 88 87 86 82 78 78 82 85 84 83 81 81 81 82 83 84 85 86 88 95 100 94 93 95 87 83 89 93 96 100 100 99 100 99 99 100 101 103 106 109
108 104 101 101 102 101 97 94 94 93 93 94 94 91 88 87 85 84 82 78 76 78 80 79 77 77 75 76 80 82 81 82 84 82 78 79 82 84 87 90 91 91 90 91 93 94 95 92 87 87 87 84 80 81 84 87 85 84 82 81 81 84 84 85 87 89 94 103 101 93 95 100 93 89 93 99 104 105 103 104 104 102 102 103 105 108 111 113
111 107 105 107 108 105 100 98 97 98 99 99 97 93 88 85 82 81 80 81 81 81 81 77 75 76 79 84 88 88 85 84 82 79 79 83 86 90 94 93 91 90 89 91 92 92 94 91 86 87 88 83 80 82 86 89 88 86 84 81 83 86 86 87 91 93 98 104 103 98 99 102 98 95 99 106 109 108 107 108 107 105 106 108 110 113 114 115
115 111 110 112 112 109 105 103 103 104 103 101 99 96 91 87 84 84 85 88 87 86 86 85 81 80 86 92 95 93 87 81 80 80 84 88 92 96 98 94 89 88 89 91 91 92 94 90 86 88 89 83 81 83 88 92 91 89 84 79 82 89 90 91 93 95 99 105 105 103 105 104 99 100 105 109 110 111 112 112 109 109 111 113 115 117 116 116
117 115 115 116 117 115 113 111 109 107 105 105 104 99 93 90 89 90 92 94 93 92 92 91 85 85 91 96 97 93 84 81 85 89 93 96 98 100 99 94 90 90 91 91 91 93 95 92 89 91 92 86 82 86 92 93 93 93 85 77 83 93 95 93 95 98 103 107 107 108 111 108 102 102 108 110 111 114 115 113 112 113 115 118 120 119 117 117
119 119 120 121 120 119 118 117 115 112 109 108 106 100 96 95 93 95 98 98 96 95 96 94 91 92 98 100 97 90 85 88 95 97 99 101 101 100 100 97 94 93 94 94 95 96 97 95 94 95 96 89 84 89 93 94 98 98 86 79 88 97 98 98 101 105 106 108 111 113 114 110 106 107 111 112 114 116 116 115 115 117 120 123 122 120 118 119
123 124 124 125 125 125 124 122 121 120 116 112 108 105 104 103 100 102 105 103 99 98 99 99 97 99 102 100 95 91 91 96 100 101 102 104 103 102 102 100 97 96 96 97 97 98 99 99 99 100 102 96 91 93 97 101 104 98 88 89 97 100 101 104 107 107 108 111 114 115 115 114 112 113 114 115 117 118 118 118 118 121 125 125 123 121 120 119
Wind_Direction
267 265 261 257 254 250 247 245 243 242 243 245 247 247 248 248 250 250 251 252 253 255 257 260 262 263 265 269 273 277 282 288 294 299 303 306 308 309 311 313 316 319 323 328 331 334 336 338 340 341 341 340 337 334 333 334 336 336 335 333 332 332 332 332 333 333 334 334 335 332 324 316 310 307 306 303 301 301 304 308 312 312 312 314 315 315 317 319
267 265 262 259 256 252 248 246 244 243 243 244 245 247 248 249 250 251 251 251 252 254 255 258 260 262 264 267 270 274 279 284 290 295 301 306 309 310 312 313 315 317 321 324 328 330 333 336 337 339 339 339 337 333 331 332 333 334 333 331 329 329 329 329 330 331 331 331 331 329 324 319 315 313 311 309 306 307 309 311 311 310 312 313 314 315 317 318
264 263 261 259 257 254 250 247 245 243 243 243 244 245 247 249 250 251 252 252 252 253 255 256 258 260 263 265 268 272 277 282 287 293 299 304 307 309 310 311 313 315 318 321 324 327 330 332 333 335 337 338 337 334 330 330 331 332 332 330 328 327 328 329 330 331 330 329 328 326 323 319 316 314 313 311 311 312 313 312 310 311 313 314 315 316 318 318
261 259 258 257 257 255 252 249 247 245 243 243 244 245 245 247 249 251 252 252 252 252 253 255 257 259 261 264 267 270 275 280 285 290 295 300 304 306 307 309 311 313 315 318 321 324 326 328 329 332 335 337 337 334 329 327 328 330 331 330 328 328 328 329 330 331 330 329 328 326 323 321 318 315 314 313 314 314 314 313 313 314 316 316 316 317 318 318
258 257 256 256 256 256 254 251 249 247 245 244 244 245 245 246 248 250 252 253 253 252 252 253 255 257 259 261 265 269 273 277 282 287 292 297 300 302 305 306 308 309 312 316 318 321 323 325 326 328 331 334 335 333 327 324 325 327 330 330 329 329 330 331 331 331 331 331 329 327 326 323 320 317 315 315 315 314 314 314 315 316 316 317 317 317 318 319
258 256 255 255 255 256 255 253 251 249 247 245 245 245 245 246 248 249 251 253 254 253 252 253 254 256 257 260 263 267 271 274 279 284 289 293 297 299 302 303 305 307 310 313 315 318 321 323 323 324 327 329 331 331 327 322 322 325 328 329 330 330 331 331 332 332 332 332 330 329 328 326 323 320 317 316 315 314 313 313 314 315 316 317 317 318 319 319
258 257 256 255 255 256 256 255 253 251 249 247 246 246 246 247 248 250 251 252 254 254 253 253 254 255 257 260 262 265 269 272 277 281 287 290 294 296 299 301 302 305 307 310 312 315 317 319 319 319 322 326 328 329 327 322 319 322 325 327 329 330 330 332 332 332 332 332 331 330 329 328 327 323 319 317 315 314 313 313 314 315 316 316 317 317 317 316
259 259 258 257 256 256 256 256 254 253 251 250 248 247 248 248 248 249 251 252 254 255 255 254 254 255 256 259 262 265 267 271 275 280 284 288 291 293 296 298 300 302 305 307 308 311 314 315 316 317 319 322 325 326 325 322 317 318 321 324 327 328 329 330 331 331 331 331 330 328 327 326 326 323 319 317 315 314 314 313 314 315 315 314 314 314 313 313
261 261 261 260 259 258 258 257 256 254 253 252 250 249 249 249 250 250 251 252 254 255 255 255 254 255 256 259 262 265 267 270 274 278 282 286 288 290 293 296 298 300 302 303 305 308 310 313 315 316 317 320 323 324 323 321 316 313 316 320 323 325 326 328 329 330 329 328 326 324 322 321 322 320 317 315 314 313 312 312 312 312 312 311 310 310 310 311
263 263 263 263 263 262 262 260 258 256 254 253 252 251 250 250 251 252 253 253 254 255 256 256 256 256 257 259 261 264 267 270 273 277 280 283 286 288 291 293 296 297 299 301 303 305 308 311 313 314 315 317 320 321 321 319 315 311 311 315 318 320 322 323 325 327 327 325 322 319 316 316 319 317 314 312 311 311 310 309 309 309 309 308 309 309 310 311
265 264 264 265 265 265 264 264 262 260 257 255 254 253 252 252 252 253 254 254 255 255 256 256 257 257 258 259 261 264 267 269 272 275 278 282 284 287 289 292 294 295 297 299 301 304 306 308 311 312 313 315 318 319 319 317 315 311 308 309 312 314 316 319 321 323 325 325 322 318 313 312 317 316 312 310 309 308 308 307 308 308 308 308 309 309 310 310
266 266 265 265 266 265 266 266 265 264 262 259 257 255 254 253 253 253 254 255 256 257 257 257 257 258 259 260 262 264 267 268 271 274 277 281 283 286 288 290 291 293 295 297 300 302 304 306 309 310 311 313 316 317 317 315 314 311 307 306 307 309 312 316 318 320 323 325 323 319 311 308 311 310 307 306 305 306 307 307 308 308 308 308 309 309 309 309
266 266 266 266 266 266 266 266 266 266 264 263 260 258 257 255 254 254 254 255 257 258 259 259 259 259 260 261 262 265 267 269 270 273 276 279 282 284 286 288 290 292 294 296 298 300 302 305 307 308 310 312 315 316 315 314 313 311 308 306 304 305 309 313 316 317 320 322 322 320 312 307 307 305 304 304 304 306 307 308 308 308 308 308 308 309 309 309
266 266 266 266 266 267 266 266 266 266 265 264 263 261 259 258 256 256 255 256 256 258 259 260 260 261 262 263 264 266 268 269 271 272 274 278 281 283 285 287 289 292 294 296 297 299 301 304 306 307 308 311 314 315 314 313 312 310 308 306 304 305 308 311 314 316 318 320 320 321 315 309 309 307 305 306 307 309 309 309 309 308 308 308 309 309 310 310
269 268 267 266 266 266 267 266 266 265 265 265 264 263 262 260 259 257 257 256 257 258 258 259 260 261 262 263 265 266 268 270 270 270 273 276 279 282 284 287 289 292 295 296 298 299 301 303 304 305 307 310 313 314 313 312 311 310 309 307 306 306 308 311 314 316 318 320 320 322 318 313 314 312 309 309 310 311 310 309 309 308 308 308 309 310 310 310
272 271 270 268 267 266 266 266 266 266 265 265 265 264 263 262 260 259 258 258 258 258 259 259 260 261 262 264 265 266 268 270 270 270 271 275 278 281 284 287 290 293 295 296 298 298 300 302 302 303 305 308 312 313 312 311 310 309 308 307 307 307 309 312 314 316 318 320 320 322 320 317 317 316 313 312 312 312 311 310 309 308 308 308 308 309 309 310
275 274 272 270 268 267 267 267 267 266 266 265 265 264 263 264 262 261 260 259 259 259 259 260 261 261 263 265 266 267 268 270 271 271 272 274 278 281 284 287 290 292 295 296 297 298 299 300 301 301 303 306 311 312 311 309 308 308 307 307 306 306 308 311 313 315 317 318 318 321 322 319 318 318 316 315 314 313 311 311 309 308 307 306 307 307 308 308
276 276 274 272 270 268 268 268 267 267 266 266 265 264 263 263 263 262 261 260 260 260 260 261 262 262 264 265 267 268 269 270 271 271 272 274 277 280 284 287 289 292 294 296 296 297 297 298 299 299 301 305 308 310 309 307 306 306 306 307 306 307 308 310 312 314 315 315 315 319 322 320 319 319 317 316 315 314 313 312 310 307 306 305 305 306 306 307
275 275 275 275 273 272 271 270 269 268 268 267 266 265 263 262 263 263 262 261 260 260 260 261 262 263 264 266 267 269 270 271 272 272 272 274 276 280 283 286 288 291 294 295 295 295 295 297 297 296 299 303 306 308 307 305 304 304 305 306 306 307 308 309 312 313 314 313 312 316 320 318 318 318 315 314 313 312 312 312 310 309 307 305 305 305 305 307
271 273 274 275 275 275 274 273 271 270 269 268 267 265 264 263 262 262 262 262 261 261 261 261 263 264 265 267 268 270 271 272 273 273 273 274 276 280 282 285 288 290 292 293 293 293 294 295 296 295 297 301 304 306 306 304 302 301 302 303 304 306 307 308 310 312 312 312 310 314 319 318 316 316 314 312 311 311 311 311 311 310 308 306 306 306 306 307
269 270 272 273 274 274 275 274 274 273 272 271 269 267 265 264 263 262 262 263 262 262 262 262 263 265 266 268 269 270 272 273 274 274 274 275 277 280 283 285 287 289 291 292 292 292 292 294 294 293 295 299 302 304 306 305 302 299 299 300 301 303 305 306 308 309 310 311 310 312 318 319 316 314 313 312 312 311 310 311 311 309 308 307 307 306 306 306
269 270 271 271 272 272 273 274 274 275 275 274 272 270 268 266 264 263 262 263 264 263 264 264 264 265 267 268 269 271 272 274 274 275 276 277 279 281 284 285 286 288 289 290 290 291 291 292 293 292 293 297 300 302 304 305 303 301 299 299 298 299 303 304 305 307 308 309 309 310 316 319 315 313 311 312 312 309 308 310 310 308 308 307 307 306 305 305
269 270 270 270 270 271 272 272 273 274 275 275 274 273 271 269 266 264 263 263 264 265 264 265 265 266 268 268 269 271 272 274 275 276 277 279 281 283 284 284 285 286 287 288 289 290 290 291 292 292 292 295 298 300 303 305 304 303 302 301 299 298 300 301 302 305 306 307 307 307 313 317 315 311 309 310 310 307 307 309 308 307 307 307 307 306 306 305
268 268 269 269 269 270 270 271 271 272 272 273 273 274 273 271 268 266 264 262 264 266 266 266 267 268 268 268 269 270 271 273 275 276 278 280 281 283 283 283 284 285 286 286 287 288 288 289 290 291 292 294 297 298 301 304 304 304 303 302 301 300 300 300 299 301 303 305 304 304 308 313 313 309 307 309 307 306 307 307 307 307 307 307 307 306 306 305
265 267 267 268 268 268 268 269 270 270 270 270 271 272 272 272 270 268 266 263 263 266 267 268 270 269 268 268 268 269 270 272 273 275 278 279 280 282 282 282 283 284 284 285 285 287 286 288 289 290 292 294 296 298 301 303 303 303 303 302 302 301 301 301 299 300 301 302 303 302 303 309 311 306 304 304 304 306 308 306 305 306 306 306 306 306 306 306
265 265 265 266 267 267 266 267 268 268 269 268 268 269 269 270 270 269 268 265 265 268 269 269 270 269 269 269 269 269 271 272 274 275 277 278 279 280 281 282 282 283 283 283 284 285 285 287 289 290 293 294 296 298 300 302 302 302 301 302 302 301 301 301 300 300 300 302 303 299 299 307 309 305 302 300 302 307 308 305 304 304 305 306 306 307 307 307
265 265 264 265 265 266 266 266 266 267 267 267 267 267 267 267 268 268 268 266 266 270 272 272 269 268 269 269 271 272 273 274 276 277 278 278 279 280 280 281 282 282 282 282 283 284 285 287 288 290 292 294 295 298 299 300 300 300 300 300 301 301 301 300 300 301 301 303 303 298 300 306 309 306 301 299 303 308 307 305 304 305 306 307 308 308 308 309
265 265 265 265 265 265 265 265 265 266 266 266 267 267 266 266 266 267 267 266 266 270 274 274 271 270 270 270 271 273 274 275 276 277 278 279 279 280 280 281 281 281 280 281 282 283 284 286 287 289 291 293 295 297 298 299 299 299 298 299 299 300 300 300 301 302 302 304 303 299 302 306 309 307 301 299 305 307 305 304 304 306 307 309 309 309 310 310
264 265 266 266 266 266 266 265 265 265 265 265 265 266 266 266 266 266 267 268 269 267 269 272 273 272 272 272 272 273 274 275 276 277 278 278 278 279 280 279 279 279 279 279 280 281 282 284 286 288 290 292 294 296 297 297 298 298 298 298 297 298 299 299 301 301 301 304 302 300 304 306 309 309 301 302 307 306 303 303 304 306 308 309 310 310 310 310
264 265 265 266 267 267 267 266 266 266 266 265 265 265 265 265 266 266 268 270 269 264 264 268 271 271 271 271 272 272 273 274 275 276 276 277 277 278 278 278 278 278 278 278 279 280 282 284 285 287 288 291 293 295 296 296 297 298 298 297 296 297 298 298 300 299 299 302 302 302 305 306 309 309 303 304 307 305 302 302 304 307 308 309 310 310 310 310
264 264 265 266 266 266 267 267 267 266 266 266 266 265 265 266 266 267 270 271 268 264 264 266 267 269 270 271 272 272 273 274 275 275 275 276 277 277 277 278 278 277 277 278 278 279 282 284 285 286 288 290 292 294 295 296 297 297 297 296 296 297 297 298 299 297 299 301 301 302 305 305 309 308 305 306 306 302 301 302 305 307 308 309 309 308 309 309
264 264 265 265 266 266 266 266 266 266 267 267 266 266 266 266 267 271 272 269 267 266 265 265 266 268 270 271 272 273 273 274 275 275 275 276 277 278 278 278 278 278 278 279 279 281 282 284 285 286 287 289 292 293 294 295 296 296 297 296 297 297 297 297 296 295 298 300 301 303 303 304 307 306 305 306 303 299 300 302 304 306 307 308 307 307 308 308
263 264 265 266 266 266 266 266 266 266 266 266 266 267 266 268 271 272 271 269 267 265 264 265 266 267 269 270 272 274 275 275 275 275 276 276 278 279 279 279 280 280 280 279 280 281 282 284 286 286 288 290 292 293 294 295 295 296 296 297 298 298 296 295 294 295 297 299 301 302 301 303 304 304 305 304 300 298 299 302 303 305 307 307 306 307 308 307
264 264 265 266 267 267 267 267 267 267 267 267 267 266 268 273 274 271 269 269 269 267 266 267 267 267 269 272 274 276 276 276 276 276 277 278 279 279 280 281 281 282 282 282 281 281 282 283 285 286 288 290 291 293 294 295 295 296 296 297 299 298 296 296 296 296 297 298 300 300 300 302 304 306 306 302 299 299 301 303 304 307 308 306 306 308 308 307
265 265 266 267 267 267 267 268 268 269 269 269 268 270 275 280 274 268 268 269 269 269 269 268 268 269 270 272 274 275 275 276 276 277 278 279 279 280 281 282 283 283 284 284 283 283 283 283 283 284 287 289 291 293 294 295 296 295 296 298 299 298 297 296 297 298 298 298 299 299 298 302 305 307 305 302 300 300 301 304 306 308 307 305 307 308 307 308
266 266 266 267 268 267 268 269 269 268 268 268 270 274 281 280 275 271 270 268 268 268 267 267 269 270 271 271 272 273 274 274 276 277 277 278 278 280 282 282 283 284 285 285 285 284 284 283 282 283 285 288 290 292 294 296 295 294 296 299 298 296 296 296 296 298 298 298 299 298 297 301 305 305 303 301 299 299 301 305 307 308 306 305 308 308 307 308
266 266 267 268 268 268 268 268 268 267 267 267 270 277 280 277 277 276 273 270 268 268 268 269 270 270 270 270 271 272 273 274 275 276 276 276 277 279 281 282 282 283 284 284 285 285 285 284 283 284 286 288 289 292 294 294 292 294 297 297 296 295 294 294 296 298 298 297 297 298 297 301 305 304 302 298 296 298 301 304 306 306 304 305 307 307 308 308
267 268 268 268 268 268 268 267 267 267 266 267 273 278 276 274 276 275 274 272 271 271 272 273 272 272 272 272 272 272 272 273 274 274 275 276 277 279 280 281 281 282 283 283 284 285 285 284 285 286 287 288 290 292 293 291 291 294 296 295 294 294 293 294 296 298 297 296 297 297 297 301 306 305 302 297 296 299 302 303 305 303 303 305 307 308 308 308
269 269 269 268 267 268 268 268 267 267 267 270 274 274 272 272 272 272 273 274 274 275 276 276 276 276 277 277 275 273 273 273 274 274 275 276 278 279 279 279 280 280 280 281 282 283 284 284 285 287 288 290 292 292 291 292 293 295 295 294 294 294 294 295 297 298 297 296 298 297 297 302 306 304 301 297 297 301 303 303 304 303 304 307 308 308 308 308
270 270 270 269 268 269 269 267 267 269 271 273 273 271 271 271 269 270 271 272 273 275 276 277 278 279 280 279 277 276 275 275 276 277 278 280 281 281 279 278 278 278 278 279 281 282 283 284 286 287 288 290 291 292 293 295 295 295 295 294 294 295 295 296 296 297 297 297 298 298 298 302 306 302 299 298 301 305 304 303 304 304 306 308 308 308 308 308
270 270 270 269 268 268 268 268 270 272 274 275 275 274 272 268 266 267 268 270 272 273 275 276 276 277 278 278 278 278 277 278 280 280 282 283 283 282 280 279 278 278 278 279 281 282 283 283 285 288 289 290 290 292 293 295 295 295 294 295 296 296 297 296 295 296 297 297 299 299 298 303 308 301 299 302 306 306 304 304 305 305 307 309 308 308 308 308
267 268 268 268 267 268 269 270 272 275 277 278 277 274 270 267 265 265 266 268 270 272 273 273 274 274 275 276 277 278 278 279 280 281 282 283 282 281 279 278 278 278 279 280 281 282 282 283 286 288 289 289 290 292 293 294 293 292 293 295 296 297 297 296 296 297 297 298 300 298 297 305 308 302 303 308 307 305 304 305 306 307 309 309 308 308 308 308
266 266 266 266 267 268 269 272 275 276 277 277 273 271 270 269 268 267 267 267 268 269 270 271 273 274 275 275 276 276 277 278 279 280 281 279 279 279 279 279 279 279 280 280 281 281 282 284 287 288 288 289 290 291 292 292 291 290 293 295 295 296 296 296 296 297 297 301 303 297 296 304 306 303 307 309 306 305 305 305 307 309 309 309 308 308 308 308
265 265 265 265 266 267 269 272 274 275 274 273 272 271 271 270 270 270 269 267 267 267 268 272 274 275 275 275 276 278 279 280 279 278 277 277 277 278 280 280 280 280 281 281 281 282 283 285 286 287 288 288 290 291 291 289 289 290 293 294 294 295 296 296 296 296 299 304 300 294 297 303 304 305 309 308 306 305 304 306 309 309 309 309 308 307 307 308
264 264 264 265 266 267 269 271 272 272 272 272 272 272 271 271 270 270 269 268 268 269 272 274 275 274 274 275 278 280 280 280 278 275 275 277 278 278 279 279 280 280 280 280 281 282 283 284 286 287 287 287 289 289 288 287 287 289 291 292 293 294 295 296 297 298 302 301 294 294 300 302 303 308 310 307 305 303 304 308 310 309 309 309 308 307 308 309
264 264 264 265 266 266 267 268 268 269 271 272 271 271 271 271 271 270 270 271 273 274 274 273 273 272 274 277 278 277 277 276 276 275 276 278 278 278 278 278 278 278 279 279 280 281 282 283 285 286 287 287 288 288 287 287 287 289 289 291 293 294 296 298 299 300 300 296 292 297 303 301 303 310 310 306 304 304 307 310 310 309 309 308 307 308 308 309
263 264 265 265 265 265 265 266 267 268 269 268 268 268 269 269 270 272 273 274 273 272 271 270 270 272 274 275 274 273 273 273 274 277 280 280 279 279 278 277 277 278 279 280 280 281 282 283 285 286 286 287 288 288 288 287 287 288 289 292 295 296 298 299 299 299 297 294 295 302 303 300 305 310 308 304 304 306 310 310 309 310 309 307 308 308 308 309
264 264 264 264 265 265 266 266 265 265 264 265 266 267 268 269 270 272 272 272 270 270 270 270 270 271 272 272 271 271 271 272 276 281 282 281 279 278 277 276 277 279 281 282 283 284 284 285 286 286 285 287 288 288 288 287 288 289 291 295 298 298 299 298 296 296 296 295 299 302 300 301 307 310 305 303 305 308 309 309 309 309 308 309 309 308 308 309
265 265 265 265 265 266 265 264 263 263 264 266 266 266 267 269 270 270 270 269 268 269 270 270 270 271 271 271 270 270 272 276 279 280 279 278 277 276 276 277 280 282 283 283 285 286 286 287 287 287 286 286 287 288 287 287 288 290 291 297 301 300 297 295 294 296 296 297 299 300 300 303 308 306 303 303 306 308 309 309 308 308 308 309 308 308 308 308
265 266 265 265 265 265 265 265 265 265 265 265 266 267 268 268 268 268 267 266 266 267 268 269 270 271 270 269 269 271 275 278 277 276 275 275 275 275 277 279 280 282 283 284 285 286 286 287 288 287 286 285 287 288 286 287 288 288 291 299 300 296 294 295 296 297 296 297 298 300 301 305 307 303 301 303 305 306 307 307 307 307 308 308 308 308 308 308
265 265 265 265 266 267 267 267 267 266 266 266 267 268 268 267 266 265 264 264 265 267 268 269 269 268 268 268 270 273 276 275 274 273 273 273 273 275 277 278 279 280 282 283 284 285 286 287 287 287 285 285 286 285 285 287 286 287 294 299 294 291 294 297 296 295 296 297 299 300 303 305 304 301 301 303 304 305 306 306 306 306 306 307 307 308 308 308
264 264 265 266 267 267 267 267 267 268 268 269 270 270 268 267 266 265 265 267 268 268 268 267 267 267 268 269 272 273 273 271 270 271 271 272 273 275 276 278 279 279 280 282 283 283 284 284 284 285 284 284 284 284 284 285 285 290 296 295 291 293 297 295 293 295 297 298 298 300 303 303 302 300 301 303 304 305 305 305 305 305 305 306 307 307 307 307
Height
10850 10850 10850 10850 10849 10849 10849 10848 10848 10848 10848 10848 10848 10848 10848 10848 10848 10848 10848 10849 10849 10848 10848 10848 10847 10847 10846 10846 10845 10845 10844 10844 10843 10842 10841 10840 10839 10838 10837 10835 10834 10833 10832 10830 10829 10828 10826 10824 10821 10819 10816 10815 10813 10812 10811 10810 10809 10808 10806 10804 10803 10801 10800 10798 10796 10794 10792 10791 10790 10788 10785 10782 10779 10777 10776 10775 10774 10774 10773 10773 10772 10771 10770 10768 10767 10765 10764 10763
10847 10847 10847 10847 10847 10847 10847 10846 10846 10846 10846 10846 10846 10846 10846 10846 10846 10846 10846 10846 10846 10846 10846 10846 10845 10845 10844 10844 10843 10843 10842 10842 10841 10840 10839 10838 10837 10836 10835 10833 10832 10831 10829 10828 10826 10825 10824 10822 10820 10818 10815 10813 10812 10810 10809 10808 10807 10806 10804 10802 10801 10799 10798 10797 10795 10793 10791 10790 10789 10787 10785 10781 10778 10775 10774 10773 10771 10771 10771 10770 10769 10768 10767 10766 10764 10763 10761 10760
10845 10845 10845 10844 10844 10844 10844 10844 10844 10843 10843 10843 10843 10843 10843 10843 10843 10843 10843 10844 10844 10844 10844 10843 10843 10843 10842 10841 10841 10841 10840 10839 10839 10838 10837 10837 10835 10834 10833 10831 10830 10829 10827 10825 10824 10822 10821 10820 10818 10817 10814 10811 10810 10809 10807 10806 10805 10804 10802 10800 10798 10797 10796 10795 10793 10792 10790 10788 10786 10785 10783 10781 10777 10774 10772 10770 10769 10768 10767 10767 10766 10765 10764 10763 10761 10760 10759 10757
10842 10841 10841 10841 10841 10841 10841 10841 10841 10841 10841 10841 10841 10841 10841 10841 10841 10841 10841 10841 10841 10841 10841 10841 10841 10840 10840 10839 10839 10838 10838 10837 10837 10836 10835 10835 10834 10832 10831 10830 10828 10827 10825 10824 10822 10820 10819 10817 10815 10814 10812 10810 10808 10807 10805 10804 10803 10802 10800 10798 10795 10794 10793 10792 10791 10789 10787 10785 10783 10782 10781 10779 10776 10773 10770 10768 10766 10765 10764 10762 10762 10761 10760 10759 10758 10756 10755 10754
10838 10838 10838 10837 10837 10837 10838 10838 10838 10838 10838 10838 10838 10838 10838 10838 10838 10838 10838 10838 10838 10839 10839 10839 10839 10838 10838 10837 10837 10836 10836 10835 10835 10834 10833 10833 10832 10830 10829 10828 10826 10825 10823 10822 10820 10818 10817 10815 10813 10811 10809 10808 10806 10805 10804 10802 10801 10800 10798 10796 10794 10792 10791 10789 10788 10787 10785 10782 10780 10778 10777 10776 10774 10771 10768 10766 10764 10762 10761 10759 10758 10757 10756 10755 10754 10753 10752 10750
10834 10834 10834 10834 10834 10834 10834 10834 10835 10835 10835 10835 10835 10835 10835 10835 10835 10835 10835 10835 10835 10836 10836 10836 10836 10836 10835 10835 10835 10834 10834 10833 10832 10832 10831 10830 10829 10828 10827 10826 10824 10823 10822 10820 10819 10817 10815 10814 10811 10809 10807 10806 10804 10803 10802 10800 10799 10798 10796 10795 10792 10790 10789 10787 10786 10784 10782 10780 10778 10775 10773 10772 10771 10769 10766 10765 10763 10761 10759 10757 10756 10754 10753 10752 10751 10750 10748 10747
10831 10831 10831 10831 10831 10831 10831 10831 10831 10831 10832 10832 10832 10832 10832 10832 10832 10831 10832 10832 10832 10833 10833 10833 10833 10833 10833 10832 10832 10832 10831 10831 10830 10829 10829 10828 10827 10826 10825 10824 10822 10821 10820 10818 10817 10816 10814 10813 10811 10809 10806 10804 10802 10800 10799 10798 10796 10795 10794 10793 10790 10788 10787 10785 10784 10782 10780 10778 10776 10773 10771 10769 10768 10766 10763 10762 10761 10759 10757 10755 10754 10752 10751 10750 10748 10747 10746 10744
10828 10828 10828 10828 10828 10828 10828 10828 10828 10828 10828 10828 10829 10829 10829 10829 10829 10829 10828 10829 10829 10829 10830 10830 10831 10831 10830 10830 10829 10829 10829 10828 10828 10827 10826 10825 10824 10824 10823 10821 10820 10818 10817 10816 10815 10814 10813 10812 10810 10808 10805 10802 10800 10798 10796 10795 10793 10792 10791 10790 10788 10786 10784 10783 10781 10780 10778 10776 10774 10771 10769 10767 10766 10764 10761 10759 10758 10757 10755 10753 10752 10751 10749 10748 10746 10745 10743 10742
10825 10825 10825 10825 10825 10825 10825 10825 10825 10825 10825 10825 10825 10826 10826 10827 10826 10826 10826 10826 10826 10826 10826 10827 10827 10828 10828 10827 10827 10826 10826 10826 10825 10824 10823 10823 10822 10821 10820 10819 10817 10816 10815 10814 10812 10812 10811 10810 10809 10806 10804 10801 10798 10796 10794 10792 10790 10789 10788 10787 10786 10784 10782 10780 10779 10778 10776 10774 10772 10769 10767 10765 10764 10762 10759 10757 10755 10754 10752 10751 10749 10748 10747 10745 10744 10743 10741 10739
10821 10821 10821 10822 10822 10822 10822 10822 10822 10822 10822 10822 10822 10822 10823 10823 10823 10823 10823 10823 10823 10823 10823 10823 10824 10824 10824 10824 10824 10824 10823 10823 10822 10821 10821 10820 10819 10818 10817 10816 10815 10813 10812 10811 10809 10808 10808 10807 10806 10804 10802 10800 10797 10794 10792 10790 10788 10786 10785 10784 10782 10781 10780 10778 10777 10775 10774 10773 10770 10767 10764 10763 10762 10759 10757 10754 10752 10750 10748 10747 10745 10744 10743 10742 10741 10739 10737 10735
10817 10818 10818 10818 10819 10819 10819 10819 10819 10819 10819 10819 10819 10819 10820 10820 10820 10820 10819 10820 10820 10820 10820 10820 10820 10821 10821 10821 10821 10820 10820 10820 10819 10818 10818 10817 10816 10815 10814 10813 10812 10810 10809 10808 10806 10805 10804 10804 10803 10802 10800 10798 10795 10792 10790 10787 10785 10783 10782 10780 10779 10778 10777 10775 10774 10773 10772 10770 10768 10765 10761 10759 10759 10756 10753 10751 10748 10747 10745 10743 10741 10740 10738 10737 10736 10734 10733 10731
10814 10814 10814 10815 10815 10815 10815 10815 10815 10815 10815 10816 10816 10816 10816 10817 10817 10816 10816 10816 10817 10817 10817 10817 10817 10817 10817 10817 10818 10817 10816 10816 10816 10815 10814 10814 10813 10811 10811 10809 10809 10807 10806 10805 10804 10802 10800 10800 10800 10799 10797 10795 10793 10790 10787 10785 10783 10780 10779 10777 10776 10775 10774 10772 10771 10769 10769 10768 10765 10763 10758 10755 10757 10754 10751 10748 10746 10744 10742 10739 10737 10735 10734 10732 10731 10730 10728 10727
10810 10810 10810 10811 10811 10811 10811 10811 10811 10811 10812 10812 10812 10813 10813 10813 10813 10813 10813 10813 10813 10813 10814 10814 10814 10814 10814 10814 10814 10814 10813 10813 10813 10812 10811 10810 10809 10808 10807 10806 10805 10804 10803 10802 10801 10799 10797 10796 10795 10795 10794 10792 10790 10788 10785 10782 10780 10778 10776 10774 10773 10771 10770 10769 10768 10766 10765 10764 10763 10762 10756 10751 10753 10751 10747 10745 10742 10740 10737 10735 10733 10731 10729 10728 10727 10725 10723 10722
10806 10806 10806 10806 10807 10807 10807 10807 10807 10807 10807 10807 10808 10809 10809 10809 10810 10810 10810 10810 10810 10810 10810 10810 10810 10811 10810 10810 10810 10810 10809 10809 10809 10808 10808 10807 10805 10805 10804 10802 10801 10800 10799 10798 10797 10796 10794 10792 10791 10790 10790 10789 10787 10785 10782 10779 10777 10776 10773 10772 10770 10768 10767 10766 10765 10763 10761 10760 10759 10759 10754 10747 10748 10747 10743 10740 10737 10735 10732 10730 10729 10727 10725 10723 10722 10720 10718 10716
10802 10802 10802 10802 10802 10802 10802 10802 10802 10802 10803 10803 10804 10805 10805 10805 10806 10806 10806 10806 10806 10807 10807 10806 10807 10807 10806 10805 10806 10806 10806 10805 10805 10805 10804 10803 10802 10801 10800 10799 10797 10796 10795 10794 10793 10792 10791 10789 10787 10786 10786 10785 10784 10782 10779 10777 10774 10773 10771 10769 10767 10765 10763 10762 10761 10759 10757 10756 10754 10754 10752 10746 10744 10742 10739 10736 10733 10730 10728 10725 10724 10722 10720 10718 10717 10715 10713 10711
10797 10797 10798 10798 10798 10798 10797 10797 10797 10797 10798 10798 10799 10800 10800 10800 10801 10802 10802 10802 10803 10803 10803 10803 10803 10803 10802 10801 10802 10802 10802 10801 10801 10801 10800 10800 10798 10797 10796 10795 10793 10792 10791 10790 10789 10788 10787 10786 10783 10782 10781 10780 10780 10778 10776 10773 10771 10769 10767 10766 10764 10762 10760 10758 10757 10756 10753 10751 10749 10749 10747 10743 10741 10738 10735 10732 10730 10726 10723 10721 10719 10717 10715 10713 10712 10710 10709 10707
10794 10794 10794 10793 10793 10793 10793 10793 10793 10792 10793 10794 10794 10795 10796 10796 10796 10798 10798 10798 10799 10799 10799 10798 10799 10800 10798 10797 10797 10797 10797 10797 10796 10796 10796 10796 10794 10793 10792 10791 10789 10788 10786 10785 10784 10783 10782 10782 10780 10778 10777 10776 10775 10774 10772 10770 10768 10766 10764 10762 10761 10759 10758 10756 10754 10753 10750 10747 10745 10745 10743 10738 10737 10735 10731 10728 10726 10722 10719 10717 10715 10712 10710 10708 10707 10706 10704 10702
10790 10790 10790 10789 10789 10789 10789 10788 10788 10788 10788 10789 10789 10790 10791 10791 10792 10793 10793 10794 10794 10794 10795 10794 10795 10795 10794 10793 10793 10792 10792 10792 10791 10792 10791 10791 10790 10789 10788 10786 10785 10784 10782 10781 10779 10778 10777 10777 10776 10774 10772 10772 10771 10770 10769 10766 10764 10762 10761 10758 10756 10754 10753 10753 10752 10750 10748 10745 10741 10741 10740 10734 10731 10731 10728 10725 10721 10718 10715 10713 10711 10708 10706 10704 10702 10701 10699 10697
10787 10786 10786 10786 10785 10785 10784 10784 10784 10784 10783 10784 10785 10785 10786 10787 10787 10788 10788 10789 10790 10790 10790 10790 10790 10790 10789 10789 10788 10787 10787 10787 10787 10787 10787 10786 10786 10785 10784 10782 10781 10779 10778 10776 10775 10773 10772 10772 10772 10770 10768 10767 10766 10766 10765 10763 10761 10758 10757 10755 10753 10750 10748 10747 10747 10746 10746 10743 10737 10737 10737 10731 10727 10725 10724 10722 10718 10715 10712 10709 10707 10705 10702 10699 10697 10696 10694 10691
10783 10782 10782 10782 10781 10781 10780 10780 10780 10780 10779 10779 10780 10780 10781 10782 10783 10783 10784 10785 10785 10785 10785 10785 10785 10785 10785 10784 10783 10783 10782 10781 10781 10782 10782 10782 10781 10780 10779 10778 10777 10775 10773 10772 10770 10769 10767 10767 10767 10765 10764 10763 10762 10761 10760 10759 10757 10755 10753 10751 10749 10747 10744 10741 10742 10741 10741 10740 10735 10732 10734 10729 10722 10720 10718 10717 10714 10711 10708 10706 10703 10700 10697 10694 10692 10690 10688 10685
10779 10778 10779 10778 10778 10777 10776 10776 10776 10776 10775 10774 10775 10776 10776 10777 10778 10779 10780 10780 10781 10781 10781 10781 10781 10781 10780 10779 10778 10777 10776 10776 10776 10776 10776 10776 10776 10775 10774 10774 10772 10770 10769 10767 10765 10764 10762 10761 10761 10760 10759 10758 10757 10756 10755 10754 10752 10751 10749 10747 10744 10743 10742 10738 10737 10737 10735 10735 10732 10728 10730 10726 10718 10713 10711 10710 10708 10704 10702 10700 10698 10694 10692 10690 10687 10685 10682 10679
10774 10775 10775 10774 10773 10773 10773 10772 10772 10772 10771 10770 10770 10771 10772 10773 10773 10775 10776 10776 10776 10777 10776 10776 10777 10776 10776 10775 10772 10772 10771 10770 10771 10771 10770 10771 10770 10770 10769 10768 10768 10766 10764 10762 10761 10759 10756 10756 10756 10755 10754 10753 10752 10751 10750 10749 10747 10745 10744 10743 10740 10738 10739 10735 10732 10732 10730 10730 10728 10724 10726 10724 10715 10707 10703 10703 10702 10697 10696 10695 10691 10688 10687 10685 10682 10680 10677 10674
10770 10771 10770 10770 10769 10769 10769 10768 10768 10767 10767 10766 10766 10766 10767 10768 10769 10770 10771 10772 10772 10772 10772 10771 10772 10773 10772 10770 10767 10767 10766 10765 10766 10765 10765 10766 10764 10764 10764 10763 10762 10761 10759 10758 10756 10754 10751 10751 10751 10749 10748 10747 10746 10746 10746 10744 10741 10739 10738 10738 10736 10733 10734 10733 10729 10728 10725 10724 10722 10721 10723 10723 10714 10702 10695 10697 10696 10691 10691 10689 10685 10683 10681 10680 10677 10675 10672 10668
10765 10765 10765 10765 10764 10765 10765 10764 10763 10763 10762 10761 10761 10762 10763 10763 10764 10764 10765 10768 10769 10767 10766 10766 10768 10768 10766 10764 10762 10761 10761 10761 10761 10759 10760 10760 10759 10759 10758 10757 10757 10755 10754 10753 10752 10749 10745 10745 10746 10744 10742 10741 10740 10740 10740 10740 10735 10732 10731 10732 10731 10728 10727 10728 10727 10726 10723 10719 10715 10714 10720 10723 10716 10700 10690 10690 10688 10685 10686 10683 10679 10678 10676 10675 10672 10670 10666 10662
10760 10760 10760 10760 10760 10760 10760 10759 10759 10758 10757 10757 10757 10758 10758 10758 10759 10759 10760 10763 10766 10763 10760 10762 10763 10762 10759 10757 10756 10756 10756 10756 10756 10755 10755 10755 10754 10753 10752 10751 10751 10749 10748 10748 10747 10744 10739 10738 10739 10738 10737 10735 10734 10733 10734 10734 10731 10726 10723 10724 10725 10723 10722 10721 10721 10722 10721 10718 10710 10704 10711 10721 10717 10701 10688 10684 10681 10679 10680 10677 10673 10672 10671 10670 10667 10664 10660 10656
10754 10754 10754 10754 10754 10754 10755 10755 10753 10753 10752 10752 10753 10753 10753 10753 10753 10754 10755 10758 10764 10761 10756 10757 10758 10755 10753 10749 10748 10751 10751 10750 10751 10751 10750 10749 10748 10748 10746 10745 10744 10743 10742 10742 10742 10738 10734 10733 10732 10731 10731 10729 10727 10727 10727 10728 10727 10723 10717 10717 10717 10716 10717 10715 10714 10715 10715 10716 10709 10695 10700 10715 10715 10700 10684 10677 10676 10675 10673 10669 10666 10665 10665 10664 10661 10658 10653 10649
10748 10748 10748 10749 10748 10748 10750 10750 10748 10748 10747 10746 10748 10748 10748 10749 10749 10750 10749 10753 10761 10759 10752 10752 10750 10748 10747 10743 10742 10744 10745 10744 10744 10744 10743 10742 10742 10741 10741 10739 10736 10737 10736 10735 10736 10732 10728 10728 10725 10724 10725 10722 10721 10721 10721 10721 10720 10718 10713 10711 10710 10709 10710 10708 10708 10708 10707 10712 10706 10689 10689 10704 10709 10699 10679 10669 10671 10669 10663 10659 10657 10657 10657 10656 10653 10650 10646 10642
10742 10741 10741 10743 10742 10742 10744 10744 10742 10742 10741 10742 10743 10742 10743 10744 10744 10745 10745 10749 10757 10756 10750 10745 10742 10741 10740 10738 10738 10738 10738 10738 10737 10737 10737 10735 10735 10734 10734 10732 10729 10729 10729 10729 10730 10725 10722 10723 10720 10719 10718 10716 10715 10714 10714 10713 10713 10712 10708 10705 10704 10702 10703 10701 10702 10701 10700 10706 10702 10687 10683 10691 10700 10696 10674 10663 10667 10664 10655 10649 10648 10649 10649 10648 10645 10641 10638 10634
10735 10734 10734 10736 10736 10735 10737 10738 10737 10736 10736 10737 10737 10737 10738 10738 10740 10741 10742 10747 10753 10751 10745 10738 10736 10735 10732 10732 10733 10732 10732 10732 10731 10731 10730 10728 10728 10728 10726 10724 10722 10722 10722 10722 10723 10720 10717 10717 10715 10713 10712 10710 10709 10708 10707 10706 10705 10704 10701 10699 10697 10696 10696 10694 10695 10693 10693 10699 10695 10685 10682 10682 10691 10690 10669 10658 10662 10657 10648 10643 10641 10643 10642 10641 10638 10634 10630 10626
10728 10728 10727 10728 10729 10729 10728 10730 10730 10729 10730 10731 10731 10732 10732 10733 10735 10736 10740 10746 10746 10742 10739 10734 10730 10727 10725 10726 10726 10726 10726 10726 10725 10724 10723 10722 10722 10721 10719 10716 10714 10714 10715 10715 10715 10713 10711 10711 10709 10706 10705 10705 10703 10702 10701 10699 10698 10696 10694 10691 10689 10689 10688 10687 10688 10685 10686 10693 10687 10681 10680 10676 10681 10683 10666 10655 10654 10647 10640 10637 10635 10636 10635 10633 10630 10627 10623 10619
10721 10721 10720 10721 10723 10721 10720 10722 10723 10722 10723 10724 10725 10725 10726 10729 10731 10734 10741 10741 10735 10734 10733 10728 10724 10721 10720 10720 10720 10720 10720 10719 10719 10717 10716 10716 10715 10714 10712 10708 10706 10705 10708 10708 10706 10707 10706 10705 10702 10700 10699 10698 10697 10697 10694 10692 10690 10688 10686 10683 10681 10680 10679 10680 10681 10676 10678 10684 10680 10677 10676 10672 10675 10674 10662 10654 10647 10638 10633 10631 10630 10630 10628 10626 10623 10620 10616 10611
10714 10714 10713 10714 10714 10713 10713 10714 10714 10715 10716 10716 10717 10719 10720 10723 10729 10735 10737 10731 10726 10728 10724 10719 10718 10717 10715 10715 10714 10713 10713 10713 10712 10710 10709 10709 10709 10708 10704 10701 10696 10695 10700 10701 10697 10699 10702 10700 10696 10693 10692 10691 10690 10689 10687 10686 10683 10680 10678 10674 10672 10670 10669 10672 10673 10670 10672 10675 10672 10671 10670 10669 10671 10666 10658 10650 10639 10630 10628 10627 10625 10624 10623 10620 10617 10613 10610 10604
10707 10707 10706 10706 10707 10706 10705 10705 10706 10707 10708 10708 10709 10712 10714 10719 10729 10732 10728 10721 10718 10719 10716 10713 10713 10711 10710 10710 10709 10707 10706 10706 10704 10702 10702 10703 10703 10702 10698 10694 10688 10685 10689 10691 10691 10692 10695 10697 10691 10684 10684 10685 10683 10681 10680 10679 10675 10673 10671 10666 10664 10660 10656 10661 10664 10662 10666 10669 10667 10664 10663 10665 10666 10662 10655 10645 10632 10623 10623 10622 10620 10619 10617 10613 10610 10606 10602 10596
10700 10700 10699 10699 10699 10697 10697 10697 10698 10699 10699 10700 10701 10704 10709 10718 10726 10724 10718 10713 10709 10708 10710 10708 10707 10705 10706 10707 10705 10702 10699 10697 10697 10695 10695 10697 10698 10696 10692 10688 10681 10677 10676 10678 10682 10684 10688 10695 10688 10678 10678 10679 10676 10675 10672 10670 10667 10665 10662 10658 10657 10651 10642 10645 10651 10652 10655 10661 10663 10658 10654 10658 10660 10657 10650 10638 10625 10617 10616 10615 10612 10611 10609 10604 10603 10599 10593 10588
10692 10693 10692 10692 10691 10689 10688 10690 10692 10691 10691 10692 10693 10699 10710 10717 10716 10712 10709 10705 10700 10701 10701 10698 10699 10701 10702 10702 10700 10697 10692 10690 10692 10690 10689 10692 10691 10690 10689 10682 10674 10669 10666 10664 10667 10673 10680 10687 10684 10675 10675 10673 10671 10669 10665 10662 10659 10655 10654 10652 10650 10643 10633 10630 10636 10640 10640 10647 10657 10653 10648 10652 10653 10650 10643 10630 10619 10610 10607 10608 10605 10603 10600 10595 10594 10591 10585 10579
10684 10685 10685 10685 10682 10679 10680 10683 10683 10682 10682 10683 10687 10699 10710 10710 10705 10702 10701 10697 10692 10691 10690 10690 10694 10695 10695 10696 10694 10690 10685 10683 10686 10685 10684 10685 10684 10686 10685 10677 10669 10663 10657 10652 10652 10659 10667 10676 10677 10672 10671 10669 10665 10662 10660 10657 10649 10645 10648 10647 10641 10636 10628 10620 10623 10630 10628 10630 10644 10647 10642 10647 10649 10645 10638 10624 10612 10605 10602 10602 10600 10595 10591 10587 10586 10582 10576 10571
10675 10676 10679 10679 10671 10667 10673 10675 10672 10672 10673 10674 10684 10700 10705 10700 10697 10694 10691 10688 10683 10681 10681 10684 10688 10687 10687 10689 10688 10684 10677 10677 10680 10678 10677 10677 10679 10684 10679 10670 10665 10658 10650 10643 10641 10645 10650 10659 10667 10666 10664 10664 10660 10657 10656 10650 10640 10639 10642 10639 10633 10628 10622 10614 10613 10620 10618 10614 10629 10637 10635 10640 10642 10638 10633 10619 10605 10602 10598 10596 10595 10589 10583 10581 10579 10574 10568 10562
10665 10667 10673 10672 10660 10656 10662 10663 10661 10662 10662 10667 10684 10696 10696 10693 10692 10686 10680 10677 10674 10673 10674 10677 10679 10678 10679 10681 10680 10676 10670 10670 10672 10669 10668 10669 10673 10679 10674 10664 10658 10652 10644 10634 10632 10636 10635 10639 10654 10659 10655 10655 10655 10653 10649 10641 10635 10636 10635 10630 10625 10620 10614 10610 10606 10610 10607 10600 10611 10624 10627 10634 10635 10627 10622 10609 10598 10597 10593 10590 10588 10582 10576 10574 10571 10565 10558 10551
10656 10659 10665 10663 10649 10644 10651 10651 10650 10650 10652 10665 10681 10686 10685 10686 10684 10678 10672 10668 10665 10665 10667 10670 10669 10668 10672 10673 10670 10667 10663 10663 10664 10660 10661 10663 10667 10671 10666 10656 10650 10644 10637 10628 10625 10628 10624 10624 10640 10650 10648 10647 10648 10644 10637 10633 10630 10629 10627 10623 10618 10612 10606 10604 10601 10601 10595 10587 10594 10603 10612 10630 10630 10616 10608 10597 10590 10591 10585 10581 10580 10572 10568 10566 10561 10554 10547 10541
10646 10649 10656 10654 10639 10634 10638 10636 10638 10642 10648 10662 10672 10673 10677 10677 10674 10671 10665 10659 10658 10658 10659 10662 10660 10659 10663 10662 10659 10658 10655 10654 10656 10653 10655 10659 10661 10662 10656 10647 10641 10634 10629 10623 10620 10619 10615 10614 10627 10640 10642 10642 10641 10635 10629 10626 10621 10618 10616 10613 10610 10605 10599 10596 10595 10596 10588 10579 10580 10579 10589 10619 10625 10605 10595 10587 10583 10583 10574 10570 10569 10562 10559 10557 10550 10543 10537 10531
10634 10638 10648 10644 10628 10624 10624 10623 10630 10636 10642 10654 10662 10663 10665 10664 10663 10663 10658 10652 10651 10650 10651 10653 10653 10652 10653 10651 10649 10648 10644 10645 10649 10647 10648 10653 10652 10650 10646 10638 10631 10625 10621 10616 10614 10612 10606 10605 10617 10630 10634 10634 10633 10628 10624 10620 10613 10608 10605 10604 10601 10597 10592 10585 10583 10589 10585 10576 10575 10561 10562 10600 10613 10591 10582 10581 10575 10570 10562 10558 10557 10552 10549 10545 10537 10532 10526 10521
10624 10630 10637 10629 10617 10616 10613 10613 10625 10631 10635 10647 10651 10648 10647 10649 10652 10654 10651 10646 10644 10644 10642 10641 10644 10643 10642 10643 10640 10636 10634 10636 10641 10641 10641 10644 10642 10637 10633 10627 10621 10617 10613 10609 10607 10604 10596 10597 10609 10621 10624 10625 10625 10622 10617 10612 10605 10599 10597 10598 10594 10589 10585 10576 10570 10576 10575 10573 10573 10550 10544 10582 10596 10575 10572 10573 10564 10557 10550 10548 10547 10542 10539 10533 10526 10522 10516 10510
10617 10619 10620 10615 10610 10608 10603 10609 10622 10624 10628 10635 10634 10631 10633 10636 10642 10644 10644 10640 10636 10634 10630 10631 10636 10634 10633 10633 10629 10627 10627 10627 10632 10635 10631 10631 10632 10627 10620 10616 10613 10609 10604 10602 10599 10593 10588 10592 10601 10609 10613 10615 10616 10614 10610 10603 10594 10590 10592 10592 10586 10583 10579 10570 10564 10562 10562 10569 10564 10534 10534 10570 10578 10563 10565 10562 10551 10546 10540 10537 10539 10534 10528 10522 10515 10510 10504 10498
10604 10604 10605 10605 10602 10598 10599 10609 10614 10612 10616 10619 10618 10621 10622 10624 10631 10635 10634 10630 10625 10622 10622 10624 10627 10624 10622 10621 10618 10619 10620 10617 10621 10624 10617 10617 10622 10620 10612 10604 10601 10599 10595 10592 10588 10583 10582 10587 10592 10597 10602 10605 10607 10606 10601 10592 10583 10582 10588 10585 10578 10576 10571 10564 10560 10552 10553 10563 10546 10517 10528 10558 10561 10554 10555 10549 10539 10534 10530 10529 10530 10524 10516 10510 10503 10497 10492 10486
10588 10588 10593 10595 10591 10590 10597 10605 10603 10598 10603 10605 10605 10609 10610 10612 10621 10624 10620 10618 10616 10615 10617 10618 10617 10613 10611 10610 10610 10612 10610 10607 10606 10606 10608 10610 10611 10611 10603 10593 10589 10587 10585 10583 10579 10575 10574 10578 10584 10586 10588 10593 10598 10597 10588 10579 10575 10576 10580 10577 10570 10569 10564 10557 10552 10545 10547 10546 10525 10515 10528 10539 10547 10548 10539 10532 10526 10519 10518 10520 10516 10510 10504 10497 10490 10484 10479 10473
10571 10573 10583 10587 10581 10580 10589 10595 10590 10588 10594 10594 10591 10595 10597 10601 10608 10610 10608 10611 10613 10611 10607 10606 10605 10602 10603 10604 10601 10598 10597 10594 10589 10591 10601 10604 10600 10599 10592 10582 10578 10576 10575 10574 10570 10567 10566 10570 10578 10578 10575 10579 10586 10585 10575 10566 10566 10568 10569 10569 10565 10561 10556 10550 10544 10541 10537 10517 10507 10524 10527 10516 10533 10545 10525 10512 10510 10506 10508 10508 10500 10496 10491 10483 10477 10472 10466 10460
10556 10564 10573 10573 10565 10566 10578 10584 10581 10581 10583 10577 10573 10579 10587 10591 10596 10600 10602 10604 10604 10597 10591 10594 10596 10595 10597 10595 10586 10581 10582 10582 10579 10583 10592 10592 10587 10583 10576 10570 10568 10567 10567 10564 10561 10560 10557 10562 10573 10570 10563 10568 10573 10571 10562 10553 10554 10557 10558 10561 10559 10551 10548 10544 10535 10532 10522 10497 10498 10526 10520 10499 10519 10535 10512 10495 10493 10494 10498 10493 10486 10484 10477 10469 10466 10459 10453 10448
10543 10555 10558 10553 10548 10554 10567 10573 10570 10566 10562 10559 10561 10569 10578 10585 10590 10594 10594 10590 10586 10582 10580 10583 10588 10588 10585 10578 10568 10565 10569 10572 10576 10581 10580 10575 10571 10564 10556 10557 10560 10561 10561 10555 10554 10553 10546 10554 10566 10558 10552 10560 10564 10559 10549 10538 10540 10546 10550 10555 10551 10541 10540 10535 10524 10520 10510 10490 10494 10512 10506 10497 10513 10515 10495 10482 10479 10481 10484 10479 10473 10470 10462 10457 10453 10446 10440 10436
10527 10539 10541 10536 10534 10540 10548 10554 10552 10547 10548 10552 10553 10559 10570 10579 10583 10583 10579 10573 10571 10572 10568 10567 10576 10580 10570 10560 10552 10551 10561 10572 10574 10571 10562 10554 10552 10544 10539 10548 10556 10555 10552 10548 10548 10545 10537 10544 10554 10545 10540 10550 10555 10549 10536 10527 10529 10533 10542 10554 10546 10528 10524 10521 10514 10512 10501 10486 10490 10494 10489 10499 10512 10498 10478 10474 10472 10469 10469 10466 10460 10455 10450 10445 10439 10433 10429 10424
10515 10521 10523 10517 10516 10522 10528 10533 10535 10535 10541 10539 10537 10551 10566 10568 10570 10568 10561 10556 10557 10559 10555 10555 10567 10568 10553 10542 10538 10544 10564 10570 10558 10551 10545 10536 10533 10530 10530 10541 10549 10546 10543 10542 10540 10535 10528 10533 10540 10532 10525 10538 10548 10536 10522 10520 10518 10516 10536 10557 10540 10512 10507 10511 10508 10503 10491 10480 10482 10480 10475 10490 10502 10485 10466 10466 10464 10458 10455 10452 10446 10441 10437 10431 10425 10420 10416 10410
10502 10500 10501 10497 10498 10506 10509 10511 10514 10517 10524 10525 10529 10547 10553 10548 10553 10551 10538 10539 10547 10548 10546 10548 10554 10549 10533 10528 10535 10549 10562 10553 10533 10531 10529 10520 10520 10524 10523 10530 10537 10536 10535 10534 10530 10525 10521 10521 10526 10518 10508 10523 10537 10523 10511 10512 10503 10505 10536 10549 10524 10500 10500 10503 10498 10489 10481 10474 10472 10469 10468 10475 10481 10469 10458 10458 10454 10448 10444 10439 10433 10429 10423 10416 10411 10408 10403 10397
10486 10480 10482 10481 10479 10483 10488 10491 10493 10494 10505 10517 10524 10531 10530 10527 10535 10531 10519 10528 10541 10538 10533 10533 10536 10531 10522 10525 10539 10547 10543 10528 10516 10516 10514 10509 10512 10515 10515 10519 10525 10526 10526 10524 10521 10518 10514 10509 10510 10504 10494 10505 10519 10511 10503 10498 10489 10506 10533 10526 10505 10501 10497 10487 10482 10480 10475 10466 10460 10461 10462 10461 10458 10451 10448 10447 10444 10439 10435 10429 10423 10417 10409 10403 10400 10396 10390 10384